UAL156 PGUM-PTKK

Flight info

Callsign UAL156
Flight time N/A
Altitude 37000
Route GUNSS WUMVE
Aircraft B738/M-SDE2E3FGHIRWXY/LB1

Departure

Time 2026-04-16 02:04
Airport Antonio B. Won Pat International Airport (PGUM)

Arrival

Time N/A
Airport Chuuk International Airport (PTKK)
Time Latitude Longitude Altitude Speed Heading
2026-04-16 01:46 13.49109 144.80411 283 ft 0 kts 332°
2026-04-16 01:57 13.49106 144.80413 283 ft 2 kts 332°
2026-04-16 01:57 13.49089 144.80422 288 ft 3 kts 334°
2026-04-16 01:57 13.49070 144.80431 291 ft 3 kts 338°
2026-04-16 01:58 13.49051 144.80438 289 ft 3 kts 344°
2026-04-16 01:58 13.49032 144.80442 288 ft 3 kts 359°
2026-04-16 01:58 13.49014 144.80440 285 ft 3 kts 39°
2026-04-16 01:58 13.49008 144.80435 285 ft 0 kts 60°
2026-04-16 02:01 13.49015 144.80446 285 ft 5 kts 60°
2026-04-16 02:01 13.49041 144.80492 287 ft 10 kts 60°
2026-04-16 02:01 13.49079 144.80568 293 ft 14 kts 64°
2026-04-16 02:01 13.49132 144.80670 292 ft 19 kts 60°
2026-04-16 02:02 13.49204 144.80802 296 ft 22 kts 61°
2026-04-16 02:02 13.49272 144.80941 302 ft 22 kts 78°
2026-04-16 02:02 13.49179 144.80977 301 ft 19 kts 207°
2026-04-16 02:02 13.49066 144.80913 297 ft 18 kts 215°
2026-04-16 02:03 13.49012 144.80845 294 ft 0 kts 241°
2026-04-16 02:03 13.48952 144.80719 297 ft 52 kts 245°
2026-04-16 02:03 13.48705 144.80180 283 ft 113 kts 245°
2026-04-16 02:04 13.47960 144.78956 763 ft 143 kts 240°
2026-04-16 02:04 13.47481 144.78103 1429 ft 141 kts 230°
2026-04-16 02:04 13.46796 144.77367 2047 ft 145 kts 217°
2026-04-16 02:04 13.45769 144.77127 2633 ft 169 kts 188°
2026-04-16 02:05 13.44515 144.77535 2831 ft 214 kts 160°
2026-04-16 02:05 13.43588 144.78454 2837 ft 252 kts 127°
2026-04-16 02:05 13.43049 144.80305 2794 ft 279 kts 116°
2026-04-16 02:05 13.42244 144.82198 2575 ft 301 kts 130°
2026-04-16 02:06 13.40940 144.83859 2212 ft 298 kts 148°
2026-04-16 02:06 13.39301 144.85090 1744 ft 284 kts 153°
2026-04-16 02:06 13.38083 144.86641 1121 ft 298 kts 115°
2026-04-16 02:06 13.38075 144.86663 1119 ft 298 kts 115°
2026-04-16 02:08 13.38020 144.86832 1120 ft 297 kts 110°